FENGYUN 1C DEB

Satellite information

Favourite Embed

Satellite Type and Status

DEBRISIN ORBIT

Key statistics

Satellite FENGYUN 1C DEB at a glance.

Uptime

9714

Days in orbit

Revolutions

≈ 14.1

Per day

Orbit

SSO

Sun Synchronous Orbit

Inclination

98.8

Latest

Satellite identification and parameters

Extended collection of information and parameters for FENGYUN 1C DEB.

Object identification

Identified? True

Debris? True

Object name: FENGYUN 1C DEB

International designator: 1999-025BLZ

Object number (NORAD): 31243

Object ID (CCSDS): 31243

Country: PEOPLES REPUBLIC OF CHINA (PRC)

Current information (Y/N): Y

RCS size: SMALL

Orbital parameters

Period: 102.334 minutes

Inclination: 98.7502 deg

SMA: 7247.241 km

Apoapsis: 917.02 km

Periapsis: 821.192 km

RAAN: 25.3839 deg

Eccentricy: 0.00661137

Argument of periapsis: 172.9783 deg

Mean anomaly: 187.2328 deg

Mean motion: 14.07160791 rev/day

Mean motion (dot): 0.00001689 rev/day2

B* drag term: 0.0010133892 1/REarth

Two-line elements (TLE)

Creation date: Dec. 11, 2025, 10:54 a.m.

Reference frame: TEME

Reference center: EARTH

Epoch: Dec. 11, 2025, 1:38 a.m. UTC

TLE line 0: 0 FENGYUN 1C DEB

TLE line 1: 1 31243U 99025BLZ 25345.06807712 .00001689 00000-0 10134-2 0 9993

TLE line 2: 2 31243 98.7502 25.3839 0066114 172.9783 187.2328 14.07160791692847

Live tracking on map

Real-time ground track for satellite FENGYUN 1C DEB.

In-orbit conjunctions

A list of the most updated potential collisions computed for object FENGYUN 1C DEB.

Target Orbit TCA Probability of collision Miss distance Type
THORAD AGENA D DEB SSO 2025-08-19 15:55:19 0.001036894 99.0 (m) DEBRIS
SCOUT A R/B SSO 2025-07-09 21:47:01 0.0006576765 89.0 (m) ROCKET BODY
METEOR 1-5 DEB LEO 2024-09-25 11:13:15 0.0005424878 275.0 (m) DEBRIS
THORAD AGENA D DEB LEO 2024-09-25 03:10:05 0.000532529 73.0 (m) DEBRIS

Associated space launch

Chinese polar orbiting meteorological satellite

FENGYUN 1C DEB was lifted into orbit during the mission ‘Long March 4B | Feng Yun 1C’, on board a Long March 4B space rocket.

The launch took place on May 10, 1999, 1:33 a.m. from Launch Complex 7.

For more information about the launch, click the button.

Launch to space Long March 4B | Feng Yun 1C
Long March 4B | Feng Yun 1C

Agency: N/A

Status: Launch Successful

Launch date: May 10, 1999, 1:33 a.m. UTC

Rocket: Long March 4B

Launch pad: Launch Complex 7

Location: Taiyuan Satellite Launch Center, People's Republic of China

...

Latest news about this satellite

There are no fresh news available about this satellite. Check back as we update our databases every day.


Newsletter sign-up

Weekly statistics, charts and insights to help you stay on top of the space industry.